Weather Roundup
Issued by NWS Springfield, MO

Home | Current Version | Previous Version | Text Only | Print | Product List | Glossary On
Versions: 1 2 3 4 5 6 7 8 9 10 11 12 13 14 15 16 17 18 19 20 21 22 23 24 25 26 27 28 29 30 31 32 33 34 35 36 37 38 39 40 41 42 43 44 45 46 47 48 49 50
728
NZUS99 KSGF 240107
HRRSGF

HOURLY WEATHER
NATIONAL WEATHER SERVICE SPRINGFIELD MO
800 PM CDT SUN APR 23 2017

......SGF CWA......

CITY           SKY/WX    TMP DP  RH WIND       PRES   REMARKS
SPRINGFIELD    CLEAR     65  32  29 N5        30.02F
JOPLIN         CLEAR     61  41  47 CALM      30.03F
WEST PLAINS    CLEAR     62  30  29 N7        30.01S
ROLLA          CLEAR     61  35  37 N3        30.01F
OSAGE BEACH    CLEAR     60  36  40 CALM      30.03
BRANSON        PTCLDY    63  37  39 NW7       30.04S

......SURROUNDING SGF CWA......

CITY           SKY/WX    TMP DP  RH WIND       PRES   REMARKS
CHANUTE        CLEAR     59  43  55 SE5       30.00F
PARSONS        CLEAR     60  44  55 CALM      30.02F
COFFEYVILLE    CLEAR     63  43  48 SE5       30.02F
EMPORIA        PTCLDY    59  42  53 S7        29.99F
GROVE OK       CLEAR     63  43  48 CALM      30.05S
ROGERS AR      CLEAR     61  38  42 N5        30.05S
SILOAM SPRINGS CLEAR     57  41  54 N8        30.03F
HARRISON AR    CLEAR     60  35  39 NW5       30.02F
NEAR YELLVILLE CLEAR     64  34  32 NW3       29.98S

......KANSAS AND MISSOURI......

CITY           SKY/WX    TMP DP  RH WIND       PRES   REMARKS
KANSAS CTY INT CLOUDY    64  34  32 SW5       29.99F
DOWNTOWN KC    CLOUDY    65  33  30 S9        29.99S
COLUMBIA       CLEAR     65  30  27 CALM      30.02F
ST JOSEPH      CLOUDY    63  35  35 S9        29.98F
ST LOUIS       PTCLDY    65  30  27 N7        30.00S
SPIRIT OF STL  CLEAR     57  42  57 CALM      29.99F
KIRKSVILLE     CLEAR     64  28  25 SE6       30.01F
WICHITA        PTCLDY    59  41  51 MISG      29.98F
TOPEKA         CLOUDY    65  36  34 S5        29.98F
OLATHE         CLOUDY    61  37  41 S3        30.00F

......TENNESSEE......

CITY           SKY/WX    TMP DP  RH WIND       PRES   REMARKS
MEMPHIS        PTCLDY    56  50  80 NW5       29.92F
NASHVILLE      RAIN      53  51  93 N12       29.85S FOG

......ARKANSAS.......

CITY           SKY/WX    TMP DP  RH WIND       PRES   REMARKS
FAYETTEVILLE   CLEAR     61  39  44 N3        30.03F
FT SMITH       CLEAR     67  38  34 NW8       30.00F
LITTLE ROCK    CLEAR     63  39  41 N8        29.96R

......OKLAHOMA.......

CITY           SKY/WX    TMP DP  RH WIND       PRES   REMARKS
TULSA          PTCLDY    63  41  44 E5        30.01F
PONCA CITY     CLEAR     64  36  35 S3        30.00F
MCALESTER      CLEAR     63  43  48 CALM      30.03S
OKLAHOMA CITY  PTCLDY    59  41  51 SE7       30.01F

......IOWA............

CITY           SKY/WX    TMP DP  RH WIND       PRES   REMARKS
DES MOINES     CLOUDY    64  34  32 S7        29.97F
QUAD CITIES    CLEAR     61  40  45 SE5       30.01R

......ILLINOIS........

CITY           SKY/WX    TMP DP  RH WIND       PRES   REMARKS
QUINCY         CLEAR     65  28  24 CALM      30.02R
CHICAGO        PTCLDY    60  28  29 SE14      30.04R




USA.gov is the U.S. government's official web portal to all federal, state and local government web resources and services.